Location: Praha
(50.0830°N, 14.4670°E)
Time: 06:01:13
(UTC+02:00)

ISS - Pass Details

Date: 28 March 2020
Orbit: 417 x 423 km, 51.6° (Epoch: 29 March)

Event Time Altitude Azimuth Distance (km) Brightness Sun altitude
Rises 19:53:45 0° 280° (W) 2,361 1.8 -14.0°
Reaches altitude 10° 19:55:51 10° 283° (WNW) 1,497 0.4 -14.3°
Maximum altitude 19:59:12 70° 8° (N) 449 -3.6 -14.8°
Enters shadow 20:00:42 30° 85° (E) 777 -2.9 -15.0°
